795  
ASUS43 KFGF 071810  
RWRFGF  
PRAIRIE TO PINES WEATHER ROUNDUP  
NATIONAL WEATHER SERVICE EASTERN NORTH DAKOTA/GRAND FORKS ND  
100 PM CDT SUN AUG 07 2022  
 
**SATELLITE DATA USED TO AUGMENT SKY COVER AT AUTOMATED STATIONS**  
***** WEATHER ACROSS EASTERN NORTH DAKOTA *****  
 
CITY SKY/WX TMP DP RH WIND PRES REMARKS
 
GRAND FORKS LGT RAIN 62 55 77 NW8 30.14F  
6HR MIN TEMP: 56; 6HR MAX TEMP: 63; 6HR PCP: TRACE;  
 
GRAND FRKS AFB LGT RAIN 60 54 78 NW6 30.15F  
DEVILS LAKE LGT RAIN 61 51 70 VRB5 30.15F  
6HR MIN TEMP: 55; 6HR MAX TEMP: 61; 6HR PCP: TRACE;  
 
FARGO CLOUDY 62 55 77 N13 30.12F  
WAHPETON ARPT MOCLDY 68 55 64 N16 30.09S  

 
 
***** WEATHER ACROSS CENTRAL AND WESTERN NORTH DAKOTA *****  
 
CITY SKY/WX TMP DP RH WIND PRES REMARKS
 
BISMARCK CLOUDY 61 54 77 NE5 30.17F  
6HR MIN TEMP: 57; 6HR MAX TEMP: 61; 6HR PCP: 0.12;  
 
MINOT CLOUDY 63 54 72 SW9 30.14F  
6HR MIN TEMP: 56; 6HR MAX TEMP: 64; 6HR PCP: 0.02;  
 
JAMESTOWN CLOUDY 63 51 65 N7 30.15F  
6HR MIN TEMP: 57; 6HR MAX TEMP: 64; 6HR PCP: 0.04;  
 
MINOT AFB FAIR 63 53 70 W7 30.13F  
GARRISON N/A 59 54 83 CALM 30.16F  
WILLISTON NOT AVBL  
DICKINSON PTSUNNY 63 54 72 S8 30.15F  
6HR MIN TEMP: 53; 6HR MAX TEMP: 63;  
 
HETTINGER CLOUDY 62 53 72 S8 30.18F  
6HR MIN TEMP: 55; 6HR MAX TEMP: 62; 6HR PCP: 0.02;  
 

 
 
***** OTHER AIRPORT OBSERVATIONS IN OUR AREA *****  
 
CITY SKY/WX TMP DP RH WIND PRES REMARKS
 
WALHALLA FAIR 63 52 67 W5 30.15F  
GRAFTON AIRPOR FAIR 63 52 67 CALM 30.15F  
VALLEY CITY AR FAIR 64 54 68 N9 30.15F  
CANDO FAIR 63 63 100 SW7G13 30.18F  
CAVALIER APRT FAIR 61 55 82 NW5 30.15S  
GWINNER CLOUDY 64 64 100 N13 30.12F  
SHEYENNE NWR N/A 65 55 70 N7 29.95S  
ROLLA FAIR 63 54 72 SW9G16 30.16F  
***** THE ABOVE OBSERVATIONS ARE NON NWS ARE NOT QUALITY  
CONTROLLED AND MAY MIS-REPORT RAIN FOR SNOW...  

 
 
***** WEATHER ACROSS NORTHERN MINNESOTA *****  
 
CITY SKY/WX TMP DP RH WIND PRES REMARKS
 
FLAG ISLAND NOT AVBL  
WARROAD FAIR 63 54 72 CALM 30.16S  
ROSEAU N/A 64 52 63 CALM 30.15S  
HALLOCK FAIR 64 54 68 CALM 30.14F  
THF RVR FALLS FAIR 63 54 72 NW6 30.17R  
6HR MIN TEMP: 55; 6HR MAX TEMP: 64; 6HR PCP: TRACE;  
 
BAUDETTE FAIR 68 52 56 CALM 30.15S  
6HR MIN TEMP: 56; 6HR MAX TEMP: 68;  
 
WASKISH FAIR 66 55 68 W3 30.13S  
CROOKSTON LGT RAIN 63 57 82 N8 30.15F  
STEPHEN NDAWN N/A 61 54 77 VRB1 N/A  
GREENBUSH NDAW N/A 64 52 63 VRB3 N/A  

 
***** WEATHER ACROSS CENTRAL AND WEST MINNESOTA *****  
 
CITY SKY/WX TMP DP RH WIND PRES REMARKS
 
FOSSTON DRIZZLE 61 55 82 N3 30.16R  
BEMIDJI FAIR 63 55 74 CALM 30.13F  
6HR MIN TEMP: 55; 6HR MAX TEMP: 63;  
 
PARK RAPIDS CLOUDY 65 56 72 VRB5 30.11F  
6HR MIN TEMP: 58; 6HR MAX TEMP: 65; 6HR PCP: TRACE;  
 
ELBOW LAKE FAIR 69 60 75 N8 30.09F  
6HR MIN TEMP: 60; 6HR MAX TEMP: 69;  
 
WADENA FAIR 66 57 72 NE6 30.10S  
DETROIT LAKES FAIR 64 57 77 N8 30.12S  
MOORHEAD FAIR 63 55 77 N13 30.13F  
FERGUS FALLS FAIR 70 61 73 N10G17 30.07F  
MORRIS MN PTSUNNY 70 59 68 N6 30.08S  
STAPLES PTSUNNY 68 57 68 NE5 30.09S  

 
***** WEATHER ELSEWHERE ACROSS MINNESOTA *****  
 
CITY SKY/WX TMP DP RH WIND PRES REMARKS
 
DULUTH FAIR 63 48 58 E15G24 30.12F  
6HR MIN TEMP: 58; 6HR MAX TEMP: 66;  
 
INTRNTL FALLS CLOUDY 65 53 65 SE3 30.14S  
6HR MIN TEMP: 56; 6HR MAX TEMP: 67;  
 
ELY N/A 64 46 52 CALM 30.14S  
CLOQUET N/A 63 46 55 E9G16 30.11S  
WHEATON N/A 70 57 64 NW12 30.10S  
BRAINERD CLOUDY 69 57 65 N8 30.09S  
6HR MIN TEMP: 61; 6HR MAX TEMP: 71;  
 
HIBBING CLOUDY 63 53 70 E3 30.12F  
6HR MIN TEMP: 56; 6HR MAX TEMP: 64; 6HR PCP: TRACE;  
 
ALEXANDRIA FAIR 71 60 68 N7 30.09R  
6HR MIN TEMP: 60; 6HR MAX TEMP: 72;  
 
SAINT CLOUD CLOUDY 72 61 68 E6 30.04F  
6HR MIN TEMP: 62; 6HR MAX TEMP: 74;  
 
MINNEAPOLIS CLOUDY 71 62 73 NE6 30.03S  
6HR MIN TEMP: 66; 6HR MAX TEMP: 71; 6HR PCP: 0.01;  
 

 
 
***** WEATHER ACROSS SOUTH DAKOTA *****  
 
CITY SKY/WX TMP DP RH WIND PRES REMARKS
 
SIOUX FALLS CLOUDY 71 65 81 N13 30.02F  
6HR MIN TEMP: 64; 6HR MAX TEMP: 71; 6HR PCP: 0.27;  
 
BROOKINGS CLOUDY 70 61 73 NE9 30.04F  
WATERTOWN CLOUDY 66 60 81 N12 30.07F  
6HR MIN TEMP: 58; 6HR MAX TEMP: 67; 6HR PCP: TRACE;  
 
HURON CLOUDY 69 62 78 N15 30.08S  
6HR MIN TEMP: 58; 6HR MAX TEMP: 70; 6HR PCP: 0.04;  
 
SISSETON N/A 71 59 65 N14 30.08F  
ABERDEEN PTSUNNY 66 57 72 N12 30.10F  
6HR MIN TEMP: 58; 6HR MAX TEMP: 69; 6HR PCP: TRACE;  
 
MITCHELL CLOUDY 68 61 78 N10 30.06R  
PIERRE CLOUDY 60 56 86 N9 30.13F  
6HR MIN TEMP: 56; 6HR MAX TEMP: 61; 6HR PCP: 0.23;  
 
MOBRIDGE CLOUDY 66 52 60 N9 30.14F  
RAPID CITY CLOUDY 63 58 83 VRB6 30.20F  
6HR MIN TEMP: 55; 6HR MAX TEMP: 63; 6HR PCP: TRACE;  
 

 
 
***** SOME WEATHER IN NEARBY STATES *****  
 
CITY SKY/WX TMP DP RH WIND PRES REMARKS
 
GLASGOW MT NOT AVBL  
GREAT FALLS MT FAIR 80 38 22 SW14G21 30.14S  
6HR MIN TEMP: 53; 6HR MAX TEMP: 80;  
 
CHEYENNE WY FAIR 81 49 32 NW14G23 30.27S  
6HR MIN TEMP: 60; 6HR MAX TEMP: 81;  
 
SCOTTSBLUFF NE PTSUNNY 81 57 43 N10G20 30.18F  
6HR MIN TEMP: 65; 6HR MAX TEMP: 81;  
 
OMAHA NE PTSUNNY 92 72 51 S10 29.93F HX 99  
6HR MIN TEMP: 76; 6HR MAX TEMP: 92; 6HR PCP: TRACE;  
 
DES MOINES IA CLOUDY 87 73 62 S7 29.99F HX 94  
6HR MIN TEMP: 81; 6HR MAX TEMP: 88;  
 
DAVENPORT IA FAIR 76 72 87 S7 30.05F  
6HR MIN TEMP: 73; 6HR MAX TEMP: 76; 6HR PCP: 0.82;  
 
CHICAGO IL LGT RAIN 76 74 93 SW8 30.08S  
6HR MIN TEMP: 75; 6HR MAX TEMP: 77; 6HR PCP: 0.11;  
 
EAU CLAIRE WI CLOUDY 73 65 75 N6 30.02R  
6HR MIN TEMP: 68; 6HR MAX TEMP: 74;  
 
LA CROSSE WI CLOUDY 80 74 81 S7 29.99F  
6HR MIN TEMP: 74; 6HR MAX TEMP: 80; 6HR PCP: 0.05;  
 

 
 
***** SOME NATIONAL WEATHER *****  
 
CITY SKY/WX TMP DP RH WIND PRES REMARKS
 
LA GUARDIA NY LGT RAIN 87 73 62 S14 30.11F HX 94  
6HR MIN TEMP: 81; 6HR MAX TEMP: 92; 6HR PCP: 0.03;  
 
RALEIGH NC PTSUNNY 87 73 62 N3 30.19F HX 94  
6HR MIN TEMP: 76; 6HR MAX TEMP: 89;  
 
ATLANTA GA FAIR 85 72 65 VRB5 30.23F HX 91  
6HR MIN TEMP: 72; 6HR MAX TEMP: 85;  
 
NEW ORLEANS LA TSTM 85 78 80 E9 30.15F HX 96  
6HR MIN TEMP: 78; 6HR MAX TEMP: 87; 6HR PCP: 0.15;  
 
OKLAHOMA CITY PTSUNNY 94 67 41 SW13 30.06F HX 97  
6HR MIN TEMP: 73; 6HR MAX TEMP: 95;  
 
ALBUQUERQUE NM PTSUNNY 80 56 43 W5 30.27F  
6HR MIN TEMP: 67; 6HR MAX TEMP: 80;  
 
SALT LAKE CITY FAIR 80 58 46 NW7 30.26R  
6HR MIN TEMP: 64; 6HR MAX TEMP: 80;  
 
LOS ANGELES CA FAIR 78 61 55 W12 29.92F  
6HR MIN TEMP: 64; 6HR MAX TEMP: 82;  
 
BOISE ID FAIR  
 
CLICK HERE TO GO TO PREVIOUS BULLETINS.

The Nexlab ND Page
The Nexlab MN Page Main Text Page